Skip Page Navigation
NASA JPL Caltech
NASA Logo - Jet Propulsion Laboratory + View the NASA Portal
+ Near-Earth Object (NEO) Program
Search JPL
JPL Home Earth Solar System Stars & Galaxies Technology
JPL Solar System Dynamics
BODIES ORBITS EPHEMERIDES TOOLS PHYSICAL DATA DISCOVERY FAQ SITE MAP
JPL Small-Body Database Browser
Search: [ help ]  
(1998 BY7)
Classification: Apollo [NEO, PHA]          SPK-ID: 3011167
Ephemeris | Orbit Diagram | Orbital Elements | Physical Parameters | Close-Approach Data ]

[ hide orbit diagram ]
Orbit Diagram
Note: Make sure you have Java enabled on your browser to see the applet. This applet is provided as a 3D orbit visualization tool. The applet was implemented using 2-body methods, and hence should not be used for determining accurate long-term trajectories (over several years or decades) or planetary encounter circumstances. For accurate long-term ephemerides, please instead use our Horizons system.
Orbit Viewer

Additional Notes: the orbits shown in the applet are color coded. The planets are white lines, and the asteroid/comet is a blue line. The bright white line indicates the portion of the orbit that is above the ecliptic plane, and the darker portion is below the ecliptic plane. Likewise for the asteroid/comet orbit, the light blue indicates the portion above the ecliptic plane, and the dark blue the portion below the ecliptic plane.

Orbit Viewer applet originally written and kindly provided by Osamu Ajiki (AstroArts), and further modified by Ron Baalke (JPL).


Orbital Elements at Epoch 2456400.5 (2013-Apr-18.0) TDB
Reference: JPL 36 (heliocentric ecliptic J2000)
 Element Value Uncertainty (1-sigma)   Units 
e .6069054417142522 0.00012427  
a 2.021093797820612 0.00055308 AU
q .794480973708358 3.3744e-05 AU
i 3.282106407605047 0.00068806 deg
node 122.0548381206647 0.0053635 deg
peri 90.44691251591256 0.0085709 deg
M 79.76827788646619 0.79091 deg
tp 2456167.955621008813
(2012-Aug-28.45562101)
2.2102 JED
period 1049.489579754749
2.87
0.4308
0.001179
d
yr
n .3430238917513854 0.0001408 deg/d
Q 3.247706621932866 0.00088875 AU
  Orbit Determination Parameters
   # obs. used (total)      114  
   # delay obs. used      0  
   # Doppler obs. used      2  
   data-arc span      30 days  
   first obs. used      1998-01-22  
   last obs. used      1998-02-21  
   planetary ephem.      DE405  
   SB-pert. ephem.      SB405-CPV-2  
   condition code      6  
   fit RMS      .40633  
   data source      ORB  
   producer      Otto Matic  
   solution date      2011-Sep-14 19:33:34  

Additional Information
 Earth MOID = .0239689 AU 
 T_jup = 3.564 
[ show covariance matrix ]

Ephemeris | Orbit Diagram | Orbital Elements | Physical Parameters | Close-Approach Data ]

Physical Parameter Table
Parameter Symbol Value Units Sigma Reference Notes
absolute magnitude H 21.449 mag .84762 36 autocmod 2.5a
rotation period rot_per 1.3 h n/a Asteroid Lightcurve DataBase (Rev. 2013-May-01) upper-limit; Result based on less than full coverage, so that the period may be wrong by 30 percent or so.
Published Reference List:
[Benner, L.A.M. (2011) http://echo.jpl.nasa.gov/~lance/radar.nea.per iods.html]

[ show close-approach data ]
Ephemeris | Orbit Diagram | Orbital Elements | Physical Parameters | Close-Approach Data ]
ABOUT SSD CREDITS/AWARDS PRIVACY/COPYRIGHT GLOSSARY LINKS
FirstGov 2013-Jun-20 10:45 UT
(server date/time)  
NASA Home Page
Site Manager:   Donald K. Yeomans
Webmaster  Alan B. Chamberlin